HULIANWANG DIGUI-149

导读 | 豆包AI

**HULIANWANG DIGUI-149卫星**由中国于2026年1月19日发射,属于低轨卫星星座组网卫星。它的成功入轨将进一步完善全球卫星互联网络布局,提升卫星互联网的全球覆盖能力与通信容量,为后续更多星座卫星的发射和组网积累经验,推动我国天地一体化信息网络建设,助力全球泛在互联服务实现。

基本信息
目录编号:
67525
目录名称:
HULIANWANG DIGUI-149
国际标识:
2026-013D
轨道中心:
EARTH
卫星名称:
HULIANWANG DIGUI-149
卫星全名:
HULIANWANG DIGUI-149
卫星状态:
在轨 (已飞行75 天)
发射日期:
2026-01-19 UTC
国别 :
中国 (CN)
星等 :
--
轨道信息
数据来源 国际轨道数据 AOE轨道数据
星历时间 2026-04-04T00:57:04+0800
8小时前
查看轨道信息
2026-03-30T11:00:00+0800
4天前
查看轨道信息
半长轴 7527.454km 7527.441km
偏心率 0.0000261 0.0000034
轨道倾角 50.008° 50.007°
近地点辐角 238.558° 74.032°
升交点赤经 262.788° 279.215°
平近点角 121.527° 308.396°
近地点 1149.12km 1149.278km
远地点 1149.514km 1149.33km
周期 108.326分钟 108.326分钟
每日圈数 13.293235 13.293267
详细信息
使用方式:
暂无
2D轨道图
3D轨道图
轨道高度分析图
轨道倾角分析图
轨道综合分析图
查看轨道综合分析图